Du Bois, PA

12:54 PM EDT on May 21, 2018 (GMT -0400)
Du Bois-Jefferson County

Weather History for KDUJ - March, 2013

Change the Weather History Date:

Sunday, March 10, 2013

  Actual Average Record
Temperature  
Mean Temperature 50 °F 33 °F  
Max Temperature 60 °F 42 °F 69 °F (1986)
Min Temperature 39 °F 23 °F 0 °F (1996)
Degree Days  
Heating Degree Days 15 32  
Month to date heating degree days 347 338  
Since 1 July heating degree days 5070 5361  
Cooling Degree Days 0 0  
Month to date cooling degree days 0 0  
Year to date cooling degree days 0 0  
Moisture  
Dew Point 22 °F    
Average Humidity 34    
Maximum Humidity 44    
Minimum Humidity 24    
Precipitation  
Precipitation 0.00 in 0.10 in 9.03 in (1998)
Month to date precipitation 0.02 1.00  
Year to date precipitation 6.47  
Sea Level Pressure  
Sea Level Pressure 30.12 in    
Wind  
Wind Speed 10 mph (SE)    
Max Wind Speed 18 mph    
Max Gust Speed 25 mph    
Visibility 10 miles    
Events      
T = Trace of Precipitation, MM = Missing Value Source: NWS Daily Summary

Daily Weather History Graph

Daily Weather History Graph

Search for Another Location

Airport or City:

Astronomy

Mar. 10, 2013 Rise Set
Actual Time 7:35 AM EDT 7:17 PM EDT
Civil Twilight 7:07 AM EDT 7:44 PM EDT
Nautical Twilight 6:35 AM EDT 8:16 PM EDT
Astronomical Twilight 6:03 AM EDT 8:48 PM EDT
Moon 6:34 AM EDT (3/10) 6:22 PM EDT (3/10)
Length of Visible Light 12h 36m
Length of Day
11h 41m
Waning Crescent, 2% of the Moon is Illuminated
Mar 10
Waning Crescent
Mar 11
New
Mar 19
First Quarter
Mar 27
Full
Apr 3
Last Quarter

Hourly Weather History & Observations

Time (EDT) Temp. Windchill Dew Point Humidity Pressure Visibility Wind Dir Wind Speed Gust Speed Precip Events Conditions
12:56 AM 39.0 °F 33.4 °F 19.9 °F 46% 30.21 in 10.0 mi SE 8.1 mph - N/A   Clear
1:56 AM 41.0 °F 35.2 °F 18.0 °F 40% 30.19 in 10.0 mi SE 9.2 mph - N/A   Clear
3:56 AM 39.0 °F 34.0 °F 19.0 °F 45% 30.19 in 10.0 mi ESE 6.9 mph - N/A   Clear
4:56 AM 41.0 °F 34.7 °F 19.0 °F 41% 30.17 in 10.0 mi ESE 10.4 mph - N/A   Overcast
5:56 AM 41.0 °F 34.7 °F 18.0 °F 40% 30.17 in 10.0 mi ESE 10.4 mph - N/A   Overcast
6:56 AM 42.1 °F 35.7 °F 18.0 °F 38% 30.16 in 10.0 mi SE 11.5 mph - N/A   Overcast
8:56 AM 44.1 °F 37.7 °F 18.0 °F 35% 30.17 in 10.0 mi SE 12.7 mph - N/A   Clear
9:56 AM 45.0 °F 40.1 °F 19.0 °F 36% 30.18 in 10.0 mi SE 9.2 mph - N/A   Clear
10:56 AM 50.0 °F - 19.9 °F 31% 30.17 in 10.0 mi SSE 9.2 mph - N/A   Partly Cloudy
11:56 AM 50.0 °F - 19.9 °F 31% 30.17 in 10.0 mi SE 8.1 mph - N/A   Overcast
12:56 PM 53.1 °F - 21.9 °F 30% 30.16 in 10.0 mi SE 10.4 mph - N/A   Mostly Cloudy
1:56 PM 57.0 °F - 23.0 °F 27% 30.14 in 10.0 mi SE 9.2 mph - N/A   Clear
2:56 PM 57.9 °F - 24.1 °F 27% 30.10 in 10.0 mi SSE 11.5 mph 16.1 mph N/A   Clear
3:56 PM 59.0 °F - 24.1 °F 26% 30.09 in 10.0 mi SE 11.5 mph 20.7 mph N/A   Clear
4:56 PM 59.0 °F - 23.0 °F 25% 30.08 in 10.0 mi SSE 9.2 mph 18.4 mph N/A   Clear
5:56 PM 57.0 °F - 24.1 °F 28% 30.06 in 10.0 mi SE 15.0 mph 21.9 mph N/A   Clear
6:56 PM 53.1 °F - 25.0 °F 34% 30.05 in 10.0 mi SE 11.5 mph 24.2 mph N/A   Clear
7:56 PM 52.0 °F - 25.0 °F 35% 30.08 in 10.0 mi SE 6.9 mph - N/A   Clear
8:56 PM 51.1 °F - 25.0 °F 36% 30.10 in 10.0 mi SE 6.9 mph - N/A   Clear
9:56 PM 50.0 °F - 25.0 °F 38% 30.07 in 10.0 mi SE 11.5 mph 19.6 mph N/A   Clear
10:56 PM 48.9 °F - 25.0 °F 39% 30.06 in 10.0 mi SE 12.7 mph 19.6 mph N/A   Clear
11:56 PM 48.0 °F - 25.0 °F 41% 30.04 in 10.0 mi SE 11.5 mph - N/A   Clear
12:56 AM 48.9 °F - 24.1 °F 38% 30.05 in 10.0 mi Variable 6.9 mph - N/A   Clear